7 * 24
多渠道服务支持
STARLINK-36267是美国(US)于2025年12月17日发射的星链卫星,隶属于SpaceX公司的星链星座项目。星链计划旨在构建全球卫星互联网星座,为全球各地用户提供低延迟、高速率的宽带互联网接入服务,该卫星入轨后将助力星链网络进一步扩展全球覆盖能力。
美国
(US)
| 数据来源 | 国际轨道数据 |
| 星历时间: | 2026-09-13T05:16:48+0800 9小时前 查看轨道信息 |
| 半长轴: | 6950.169km |
| 偏心率: | 0.0002925 |
| 轨道倾角: | 70.001° |
| 近地点辐角 | 265.581° |
| 升交点赤经 | 62.523° |
| 平近点角 | 94.501° |
| 近地点: | 569.999km |
| 远地点: | 574.065km |
| 周期: | 96.106分钟 |
| 每日圈数: | 14.983379 |